Location: B�hl
(48.6968°N, 8.1352°E)
Time: 00:02:07
(UTC+00:00)

Cosmos 1666 - Pass Details

Date: 08 March 2021
Orbit: 497 x 518 km, 82.5° (Epoch: 20 April)

Event Time Altitude Azimuth Distance (km) Brightness Sun altitude
Rises 18:36:20 0° 194° (SSW) 2,575 6.3 -13.0°
Reaches altitude 10° 18:38:27 10° 197° (SSW) 1,699 5.4 -13.4°
Maximum altitude 18:42:09 67° 281° (WNW) 547 3.0 -14.0°
Drops below altitude 10° 18:45:54 10° 5° (N) 1,724 5.4 -14.6°
Sets 18:48:03 0° 8° (N) 2,618 6.3 -14.9°
